Jacksonville Craig, FL

2:19 PM EDT on May 27, 2017 (GMT -0400)
Craig Municipal

Weather History for KCRG - September, 2011

Change the Weather History Date:

Tuesday, September 6, 2011

  Actual Average Record
Temperature  
Mean Temperature 80 °F -  
Max Temperature 82 °F 84 °F 95 °F (1999)
Min Temperature 75 °F 70 °F 26 °F (2004)
Cooling Degree Days 14    
Growing Degree Days 30 (Base 50)    
Moisture  
Dew Point 72 °F    
Average Humidity 77    
Maximum Humidity 90    
Minimum Humidity 65    
Precipitation  
Precipitation 0.06 in - - ()
Sea Level Pressure  
Sea Level Pressure 29.81 in    
Wind  
Wind Speed 10 mph (SW)    
Max Wind Speed 15 mph    
Max Gust Speed 23 mph    
Visibility 10 miles    
Events      
Averages and records for this station are not official NWS values.
T = Trace of Precipitation, MM = Missing Value Source: NWS Daily Summary

Daily Weather History Graph

Daily Weather History Graph

Search for Another Location

Airport or City:

Trip Planner

Search our weather history database for the weather conditions in past years. The results will help you decide how hot, cold, wet, or windy it might be!

Date:

Astronomy

Sep. 06, 2011 Rise Set
Actual Time 7:05 AM EDT 7:43 PM EDT
Civil Twilight 6:41 AM EDT 8:07 PM EDT
Nautical Twilight 6:12 AM EDT 8:35 PM EDT
Astronomical Twilight 5:43 AM EDT 9:04 PM EDT
Moon 3:59 PM EDT (9/6) 1:38 AM EDT (9/6)
Length of Visible Light 13h 26m
Length of Day
12h 37m
Waxing Gibbous, 70% of the Moon is Illuminated
Sep 6
Waxing Gibbous
Sep 12
Full
Sep 20
Last Quarter
Sep 27
New
Oct 3
First Quarter

Hourly Weather History & Observations

Time (EDT) Temp. Heat Index Dew Point Humidity Pressure Visibility Wind Dir Wind Speed Gust Speed Precip Events Conditions
12:53 AM 81.0 °F 84.9 °F 71.1 °F 72% 29.78 in 10.0 mi South 8.1 mph - N/A   Clear
1:53 AM 80.1 °F 83.2 °F 70.0 °F 71% 29.77 in 10.0 mi South 9.2 mph - N/A   Clear
2:53 AM 79.0 °F - 71.1 °F 77% 29.77 in 10.0 mi South 9.2 mph - N/A   Clear
3:53 AM 79.0 °F - 73.0 °F 82% 29.76 in 10.0 mi South 10.4 mph - N/A   Partly Cloudy
4:53 AM 79.0 °F - 73.9 °F 84% 29.74 in 10.0 mi South 9.2 mph - N/A   Clear
5:53 AM 79.0 °F - 75.0 °F 88% 29.74 in 10.0 mi South 10.4 mph - N/A   Clear
6:39 AM 80.6 °F 86.2 °F 75.2 °F 84% 29.77 in 10.0 mi SSW 9.2 mph - N/A   Mostly Cloudy
6:53 AM 80.1 °F 85.1 °F 75.0 °F 85% 29.78 in 10.0 mi SSW 15.0 mph 20.7 mph 0.00 in   Overcast
7:53 AM 77.0 °F - 73.9 °F 90% 29.80 in 10.0 mi SSW 13.8 mph - 0.05 in   Clear
8:53 AM 78.1 °F - 73.9 °F 87% 29.80 in 10.0 mi SSW 13.8 mph 20.7 mph 0.01 in   Clear
9:53 AM 80.1 °F 84.5 °F 73.9 °F 81% 29.81 in 10.0 mi SW 15.0 mph 23.0 mph N/A   Clear
11:53 AM 81.0 °F 86.2 °F 73.9 °F 79% 29.83 in 10.0 mi SW 13.8 mph - 0.00 in   Overcast
12:45 PM 80.6 °F 85.4 °F 73.4 °F 79% 29.83 in 10.0 mi West 10.4 mph - N/A   Overcast
12:53 PM 80.1 °F 84.2 °F 73.0 °F 79% 29.84 in 10.0 mi West 10.4 mph 18.4 mph N/A   Overcast
1:35 PM 80.6 °F 84.6 °F 71.6 °F 74% 29.83 in 10.0 mi WSW 13.8 mph 19.6 mph N/A   Overcast
1:51 PM 80.6 °F 84.6 °F 71.6 °F 74% 29.83 in 10.0 mi SW 10.4 mph - N/A   Overcast
1:53 PM 82.0 °F 86.7 °F 72.0 °F 71% 29.83 in 10.0 mi WSW 10.4 mph - N/A   Overcast
2:53 PM 81.0 °F 84.4 °F 70.0 °F 69% 29.83 in 10.0 mi WSW 9.2 mph 18.4 mph N/A   Overcast
3:53 PM 80.1 °F 83.2 °F 70.0 °F 71% 29.83 in 10.0 mi West 6.9 mph - N/A   Overcast
4:40 PM 80.6 °F 83.9 °F 69.8 °F 70% 29.84 in 10.0 mi SW 12.7 mph 20.7 mph N/A   Scattered Clouds
4:53 PM 81.0 °F 84.4 °F 70.0 °F 69% 29.83 in 10.0 mi SW 10.4 mph 16.1 mph N/A   Partly Cloudy
5:53 PM 82.0 °F 85.5 °F 69.1 °F 65% 29.83 in 10.0 mi WSW 10.4 mph - N/A   Mostly Cloudy
6:53 PM 81.0 °F 84.1 °F 69.1 °F 67% 29.84 in 10.0 mi WSW 8.1 mph - N/A   Partly Cloudy
9:53 PM 78.1 °F - 68.0 °F 71% 29.88 in 10.0 mi West 3.5 mph - N/A   Clear
11:53 PM 75.9 °F - 68.0 °F 76% 29.92 in 10.0 mi West 6.9 mph - N/A   Overcast